TDRS 8

Last updated on Wed Jul 09 2025 00:02:37 GMT+0000 (Coordinated Universal Time)

1 26388U 00034A 25189.61629389 -.00000191 00000+0 00000+0 0 9993 2 26388 12.1366 34.1475 0003226 44.9798 157.0726 1.00165210 91730
UTC large
Height (km)
Speed (km/s)
/
Latitude / Longitude
Inclination (degrees)
Orbital Period (minutes)
Azimuth
Elevation
Range (km)
Doppler Factor

Next 0 passes for location: London (51.5072 / 0.1276)

Sorry there are no passes over London.